Helicity
7 7 17 37 125 152 52 -1 117 18 58 5 18 58 12 161 231 115 -70 -109 68 139 147 62 66 125 143 143 147 134 117 106 89 84 93 107 98 97 91 87 79 72 64 60 51 43 38 40 39
-4 23 40 79 145 79 26 65 155 83 -34 -15 7 23 78 79 88 11 -30 -39 -65 -28 65 78 254 96 155 145 132 121 105 92 81 89 103 118 115 104 95 85 69 59 51 45 42 39 32 37 50
-13 1 49 55 52 61 102 114 93 0 13 70 70 82 63 110 140 174 100 -149 -9 -9 50 216 43 121 140 128 115 112 116 101 89 98 107 116 106 111 89 69 55 43 39 37 34 28 28 37 57
6 14 0 37 48 87 201 163 52 70 86 49 53 120 53 50 25 86 65 86 67 29 120 111 120 182 187 157 169 160 127 108 95 107 99 106 103 104 86 59 48 42 38 30 27 25 26 35 77
-6 -13 39 58 92 165 113 72 41 103 65 67 21 43 83 69 46 68 69 102 167 173 170 134 227 224 226 188 165 171 137 112 99 103 99 109 111 97 81 61 50 36 26 24 21 25 32 37 74
31 35 22 47 72 120 56 59 -4 93 104 78 28 -60 42 118 78 61 62 82 211 296 296 256 318 228 205 183 187 198 166 119 104 105 91 114 117 96 89 70 47 35 28 27 27 28 36 44 71
84 68 39 -4 21 63 76 68 2 39 84 89 -26 -3 25 43 74 32 76 71 253 277 271 235 197 82 506 435 309 271 240 200 129 116 101 117 120 103 93 67 41 38 29 21 24 21 32 48 89
1 108 -73 -25 55 50 46 49 43 70 89 52 -43 -6 34 41 29 53 63 95 175 203 158 131 194 221 66 -62 235 126 170 182 206 210 162 173 140 118 94 66 47 31 29 20 13 8 37 52 100
-15 -42 -12 67 92 11 40 59 18 173 225 151 8 100 72 118 104 88 97 94 121 120 135 205 328 274 225 194 299 135 72 154 173 218 248 209 164 133 102 43 23 39 15 2 5 5 14 57 88
7 79 99 120 -8 24 37 14 -41 92 150 30 97 80 48 54 112 98 120 127 135 164 199 206 278 264 238 156 113 148 133 135 151 158 166 186 166 109 86 62 17 29 8 17 -5 17 23 48 55
18 117 81 16 -13 18 -42 50 -22 33 56 -6 -13 133 67 171 139 112 118 170 192 155 199 224 265 247 207 198 208 187 272 265 310 158 198 98 131 91 66 63 24 9 11 7 2 -8 14 39 53
36 71 59 25 5 12 -9 146 22 -40 -4 24 57 84 106 147 138 120 126 147 211 276 320 308 306 230 208 261 189 192 254 174 136 87 88 71 74 56 71 19 11 33 3 -5 -7 -18 15 36 33
-88 1 -11 22 5 78 52 59 84 24 10 78 22 47 69 160 102 96 95 123 230 322 326 365 339 393 307 331 248 322 348 152 141 110 90 54 29 35 -4 6 19 22 3 3 -8 18 6 19 32
-38 -76 -72 -36 36 41 46 -29 -4 -12 65 91 94 66 203 150 89 78 61 93 198 255 316 356 357 321 442 364 514 382 388 304 237 190 142 99 44 -24 -27 -30 19 5 -4 -10 16 20 8 19 40
-127 -74 -60 -8 42 131 119 47 77 41 136 144 44 126 249 91 56 50 41 76 181 216 227 323 329 353 457 513 505 407 454 448 198 364 272 -45 -68 -68 -51 11 10 5 -4 7 56 25 30 38 39
-82 -41 -2 17 161 96 171 107 42 90 164 90 8 68 217 61 77 45 35 65 114 168 159 212 363 436 389 384 336 470 187 204 377 366 -51 -55 -89 -60 -25 11 24 0 80 92 77 75 59 40 54
-39 48 106 141 111 88 175 103 211 107 123 109 -40 4 137 153 101 53 30 43 24 74 134 169 187 178 164 137 86 103 72 117 53 -63 -82 -152 -109 -68 40 33 6 55 114 107 102 71 58 51 73
18 72 80 102 52 132 77 120 194 179 130 191 48 -14 235 234 107 66 60 29 17 18 41 63 47 60 63 32 38 48 -57 -164 -105 -25 -94 -101 -75 -29 -2 23 11 93 115 118 117 87 85 67 125
66 38 -9 -2 77 126 86 81 179 163 126 124 11 111 191 248 110 100 60 36 33 8 -1 3 1 0 -21 -76 -123 -147 -182 -234 -189 -151 -91 -47 -56 -21 26 49 85 87 121 148 149 137 107 109 166
59 19 11 -21 120 66 3 41 185 191 40 9 82 239 190 175 209 112 59 50 18 12 14 4 -22 -42 -82 -83 -117 -126 -114 -153 -167 -112 -73 -32 13 27 39 73 69 114 181 188 184 196 206 152 159
11 -26 11 -4 36 17 45 -13 179 40 -38 93 175 215 186 342 291 187 123 102 85 2 -21 -22 -42 -67 -119 -92 -77 -72 -71 -79 -59 -69 -70 -19 51 57 73 51 41 100 182 269 258 205 225 193 168
-28 1 -7 -36 41 15 35 10 41 72 36 99 212 232 222 332 300 255 214 165 146 43 5 1 -32 -40 -50 -21 -21 -20 -1 8 -6 -4 7 32 81 110 108 110 102 181 227 242 230 258 271 301 319
12 -31 48 20 0 18 -92 14 4 4 46 152 226 184 188 293 371 319 312 253 141 144 96 60 22 6 -1 -5 -12 -13 7 46 49 52 61 72 117 139 137 140 170 235 252 259 268 297 312 410 363
9 -8 24 43 27 -40 -32 -40 -59 29 58 74 138 262 242 228 328 282 235 246 172 134 120 109 117 44 7 -2 -26 -49 73 77 82 88 82 104 166 186 170 169 200 245 264 245 293 345 400 402 358
78 58 22 59 25 0 -39 -110 -72 166 120 155 184 279 219 120 240 274 222 201 211 206 180 142 131 107 30 -22 -25 -15 48 129 148 169 198 249 243 228 195 212 191 198 250 248 308 353 365 400 430
80 79 97 59 33 -6 -44 -11 -9 18 29 -21 77 116 203 172 198 313 328 257 234 225 233 203 163 127 90 41 3 -8 48 48 164 233 150 273 278 263 248 257 186 201 212 275 317 334 396 399 333
10 59 24 37 74 3 -27 29 18 -31 1 30 17 32 202 217 218 267 319 323 252 221 256 296 206 151 112 90 75 66 60 69 225 294 302 248 221 206 266 263 237 193 252 298 308 324 373 279 213
-15 46 37 51 78 22 -9 15 13 144 54 50 102 105 79 150 227 266 312 303 288 307 302 281 265 238 175 119 79 75 151 129 188 333 263 169 143 154 304 330 324 330 311 283 315 324 289 290 261
87 -15 31 44 69 76 30 9 4 92 62 35 63 82 84 55 83 93 291 328 299 316 364 344 286 229 210 181 135 85 100 146 356 288 140 74 118 277 372 343 328 299 300 281 292 289 256 282 291
107 134 51 126 35 64 113 17 11 50 13 7 44 58 108 146 63 25 112 140 213 297 358 395 336 278 264 216 167 251 389 202 287 142 232 317 284 289 316 318 293 297 301 298 317 319 283 326 265
Wind_Speed
30 27 29 34 38 34 35 31 33 46 34 42 44 46 46 40 46 44 23 28 16 6 7 14 12 33 23 17 19 19 19 22 24 26 30 34 38 40 41 41 40 40 40 40 40 41 40 40 40
30 27 30 34 36 39 40 27 34 27 41 36 41 47 44 44 36 24 29 37 41 57 41 49 27 34 23 18 17 18 17 17 19 25 29 32 37 40 40 41 41 40 39 40 40 39 37 34 34
29 26 33 31 32 29 29 24 25 52 35 42 44 42 44 47 45 43 44 54 64 63 43 17 18 30 24 23 22 20 20 18 20 23 27 32 36 37 37 38 39 39 39 38 38 37 35 32 33
33 31 28 26 22 20 11 15 9 40 44 51 41 43 38 46 47 53 58 43 37 30 21 7 23 29 23 21 20 17 16 19 24 28 27 30 34 36 36 37 39 38 37 36 35 33 31 31 31
32 29 25 27 29 18 17 27 38 41 36 52 53 48 48 49 56 59 56 39 22 27 22 10 18 22 25 24 23 20 17 16 21 26 28 29 33 34 35 37 37 36 34 32 31 30 28 27 30
31 30 29 33 36 17 30 46 39 41 44 45 54 48 54 52 56 56 48 39 16 17 5 19 23 27 27 27 24 22 20 17 19 25 29 29 31 32 34 35 36 35 31 30 27 28 27 26 28
14 27 27 30 24 23 33 44 44 41 52 55 46 46 49 57 43 40 46 26 14 10 8 8 16 29 20 15 21 18 20 17 16 23 27 28 28 31 32 32 33 32 31 32 32 32 30 30 25
15 24 24 21 25 18 42 46 36 45 49 40 40 44 28 27 19 27 25 24 16 16 15 21 36 36 11 7 14 21 16 18 15 22 25 25 25 28 32 33 30 31 31 30 30 31 33 33 25
16 21 16 16 27 25 41 44 50 42 36 39 39 30 11 22 26 23 21 22 19 19 16 14 14 17 19 20 15 15 11 16 15 18 20 19 20 20 22 34 36 29 28 26 28 32 31 29 23
20 17 12 9 11 35 55 60 57 41 40 45 30 20 19 21 22 22 19 19 21 17 15 13 13 17 26 32 35 41 20 17 15 12 16 15 14 16 19 24 35 30 25 22 24 24 21 20 21
9 8 9 10 16 26 53 49 44 31 43 48 29 18 23 23 25 25 24 22 22 21 13 12 11 15 22 28 32 27 13 27 15 12 14 23 14 15 14 14 27 28 24 19 17 19 21 19 23
20 6 4 19 50 52 21 29 34 38 37 52 41 24 20 18 21 23 23 22 21 19 18 7 12 19 20 13 23 26 35 26 23 27 27 29 26 18 14 14 24 19 12 16 20 20 22 23 23
31 16 3 8 60 54 57 36 26 40 53 35 42 23 21 22 24 24 23 20 23 19 13 8 15 14 11 12 17 23 30 26 23 31 20 25 27 26 22 16 16 7 11 31 28 22 22 22 22
11 9 7 29 57 55 33 30 24 26 38 26 15 14 19 20 22 21 20 20 23 20 10 11 15 16 9 15 12 24 20 22 28 24 21 16 14 21 25 19 9 5 45 41 22 21 21 21 22
25 25 2 5 18 37 44 18 31 28 25 28 22 17 18 21 26 23 21 23 24 22 15 14 18 19 19 16 19 18 19 17 25 21 12 19 22 29 23 13 3 45 54 37 18 19 20 18 23
20 21 20 8 21 39 30 8 31 29 30 19 19 24 25 25 28 27 25 30 32 31 22 18 17 19 24 19 19 25 34 19 14 14 21 18 21 15 16 6 55 56 6 10 18 14 20 23 17
9 5 16 21 15 33 27 27 24 24 24 23 23 23 32 30 30 30 32 37 40 42 43 31 29 29 24 30 32 31 29 25 28 21 16 15 29 43 44 55 58 9 9 12 17 26 34 32 21
5 13 33 24 13 11 18 9 17 19 25 21 26 24 32 32 33 36 37 40 45 48 50 49 44 33 19 21 24 25 29 40 55 59 67 66 64 63 63 60 59 11 15 23 30 35 29 36 12
13 19 50 22 12 18 1 19 9 21 17 19 30 26 34 32 36 37 40 42 44 53 60 63 64 67 65 60 58 69 71 74 74 67 64 60 55 46 28 11 29 14 8 14 22 27 29 25 25
17 26 34 28 27 22 38 15 7 19 18 27 29 35 36 34 39 40 41 45 45 53 59 61 64 68 72 72 74 70 69 67 68 63 59 51 46 40 36 31 17 6 18 6 10 19 23 25 26
14 16 19 20 15 11 25 14 9 13 18 21 29 34 33 35 36 44 47 49 48 53 56 59 63 68 72 70 64 60 58 59 60 60 58 50 45 35 32 38 32 16 14 8 13 15 18 28 31
23 3 28 33 25 18 12 4 14 9 11 23 26 29 30 31 34 42 46 47 50 54 55 57 61 64 64 60 57 55 53 52 50 49 48 45 42 36 29 22 28 20 17 14 10 12 16 26 31
15 2 33 34 34 30 19 19 12 54 11 18 28 24 23 29 33 39 42 42 44 47 52 54 57 56 57 55 53 49 46 45 40 41 40 38 34 30 28 21 14 10 8 8 14 19 24 28 35
29 34 33 24 26 10 15 12 5 11 6 1 20 28 38 26 35 39 39 36 40 41 44 47 51 51 53 51 50 46 41 35 34 37 36 31 28 25 23 21 13 12 13 16 19 22 23 26 29
18 20 31 38 27 1 26 22 17 16 15 10 6 29 36 36 36 38 38 40 42 45 46 47 47 48 48 47 47 47 38 37 38 30 26 24 16 21 14 11 8 10 14 13 13 20 25 26 28
9 6 17 23 16 32 24 11 16 11 10 14 17 17 31 37 46 37 33 38 40 43 47 48 48 46 47 47 51 48 39 37 34 30 30 21 21 18 14 9 5 6 7 9 15 21 25 25 24
8 12 7 18 29 36 26 11 39 8 11 12 9 14 21 38 45 42 34 34 37 42 45 46 47 48 44 45 41 39 46 37 35 28 23 17 13 16 6 2 2 7 12 15 19 23 27 23 19
27 30 13 17 23 33 25 11 8 23 17 17 19 17 14 16 28 33 36 39 37 40 42 44 46 46 47 41 36 38 35 43 23 14 22 21 37 9 7 5 8 12 17 18 22 22 18 15 19
21 22 24 21 21 31 36 26 12 2 14 10 8 11 16 15 13 10 30 37 46 46 42 38 38 41 40 40 43 42 34 30 33 22 25 17 4 3 2 6 10 14 18 19 21 19 15 18 20
36 27 23 27 22 27 26 24 10 5 3 16 7 7 13 11 16 18 13 28 43 48 40 39 38 34 28 33 34 29 40 36 37 32 2 5 3 8 10 11 15 19 18 18 16 18 14 21 27
Wind_Direction
21 28 20 6 354 349 335 342 339 4 13 314 305 302 294 301 280 274 292 301 306 48 323 305 207 217 195 167 142 131 121 109 97 90 90 86 86 84 83 81 79 75 72 68 65 64 62 58 53
29 33 19 3 350 340 339 338 344 341 321 329 323 308 306 288 307 309 303 300 275 280 288 270 270 216 194 182 161 143 128 111 99 96 95 90 91 88 86 83 80 77 73 69 66 63 58 52 44
39 42 13 10 358 343 344 343 341 316 344 318 322 329 305 302 310 294 319 297 289 280 281 288 164 148 173 169 154 146 135 121 107 103 99 94 94 92 89 85 82 78 74 69 66 61 55 48 40
27 19 14 8 354 353 326 299 300 339 324 336 327 323 323 317 311 310 306 319 290 284 287 197 164 149 188 182 170 169 138 127 117 113 108 101 99 96 92 87 83 78 72 67 62 57 51 46 35
26 20 7 353 339 323 275 340 4 354 355 333 331 315 309 317 317 315 317 317 306 275 288 260 182 173 169 179 171 159 154 142 128 123 115 107 103 100 95 90 84 78 72 65 57 49 44 40 33
17 10 357 348 347 324 17 355 5 355 351 344 330 320 309 317 317 312 314 301 329 292 322 317 265 199 176 183 180 160 156 144 141 128 122 114 108 102 96 90 85 78 69 61 51 43 38 38 32
22 11 358 353 352 11 11 354 350 358 343 337 344 331 314 308 302 314 294 337 342 345 321 335 333 47 28 194 160 159 160 154 142 134 128 119 112 104 98 93 85 77 69 61 54 47 41 43 29
7 356 0 5 360 9 358 347 2 347 338 351 352 359 253 338 83 333 337 335 333 326 326 315 294 288 265 8 85 176 140 147 151 124 126 120 112 103 97 93 85 77 68 58 52 47 47 45 23
43 16 12 358 10 21 9 351 344 358 6 357 356 8 89 57 78 13 6 347 338 350 357 25 48 58 44 36 84 103 147 150 143 126 125 122 112 103 97 93 89 76 64 56 52 51 44 32 4
17 13 355 310 356 14 324 322 337 345 354 350 4 28 65 81 57 12 7 0 338 349 15 43 83 88 100 98 99 106 117 112 162 143 139 120 130 114 106 90 88 77 67 52 44 33 7 330 334
3 353 310 279 246 18 295 336 359 23 349 351 11 59 102 34 19 4 354 3 352 342 8 58 74 84 107 114 108 104 106 110 123 142 122 115 138 118 105 90 84 80 64 39 10 340 325 341 357
354 282 301 247 341 348 23 15 354 0 353 337 335 29 14 38 7 4 354 359 7 357 345 51 83 105 107 122 114 114 124 120 120 127 118 119 119 114 106 96 92 76 34 23 278 295 335 346 0
350 16 289 344 292 326 337 16 21 360 353 318 321 17 19 5 360 1 357 9 5 5 355 74 110 109 129 137 128 125 122 119 123 120 130 115 117 116 112 103 90 44 24 243 252 320 339 356 358
359 314 284 343 316 317 358 13 36 28 23 356 79 95 54 40 34 27 23 33 19 8 23 71 107 110 152 153 134 138 132 122 122 121 119 123 122 125 120 109 84 22 225 229 298 337 358 6 355
0 359 310 214 359 343 340 14 6 34 47 47 50 89 64 74 64 54 51 56 55 39 59 110 101 118 122 128 133 134 142 142 125 132 129 126 129 128 122 100 321 230 207 247 329 348 4 18 335
360 3 2 256 347 347 7 194 15 13 32 62 102 65 90 94 77 69 67 83 84 73 80 99 103 125 122 125 138 128 132 138 137 136 141 143 133 117 119 291 220 211 26 5 328 2 341 327 0
359 341 348 1 4 350 352 357 29 59 68 53 142 157 92 91 83 82 89 93 99 93 95 97 115 120 121 124 124 137 141 142 144 144 153 140 149 157 226 224 215 181 324 326 321 306 296 304 331
36 3 357 9 42 21 2 22 9 60 61 82 144 128 107 106 104 105 100 101 103 108 104 104 108 114 123 121 120 125 131 145 207 207 193 181 184 193 201 219 218 300 303 302 295 293 308 307 340
231 335 339 1 22 3 348 336 63 132 94 60 141 121 125 119 118 109 107 108 103 116 125 128 127 134 130 128 131 144 154 167 178 182 183 179 175 169 157 163 279 296 290 300 304 304 309 317 327
253 345 340 0 41 11 334 238 139 144 151 138 137 131 132 121 123 121 117 119 117 124 132 134 137 140 146 148 152 159 163 176 179 184 186 171 167 169 172 171 174 267 293 267 289 305 312 314 313
318 339 344 343 15 20 346 259 56 161 144 132 136 137 130 128 119 131 132 132 129 133 134 133 135 138 144 147 149 156 164 174 175 183 185 179 177 174 173 179 179 175 186 246 287 290 303 304 309
329 175 344 341 352 354 34 53 40 115 162 151 135 136 130 129 132 136 140 137 136 140 139 139 141 145 152 155 157 162 162 165 170 173 179 182 180 178 177 183 191 188 186 200 268 299 294 310 306
315 331 340 341 340 349 205 344 22 301 163 150 149 141 134 142 145 146 144 144 143 142 146 150 152 154 160 163 164 165 164 167 167 173 178 181 181 185 189 189 188 201 222 280 307 316 305 312 311
310 319 329 341 339 274 202 182 242 161 108 111 146 153 151 153 159 157 153 145 151 151 153 156 160 163 168 169 174 177 173 170 172 177 179 179 180 187 192 195 219 241 277 292 304 313 313 310 314
299 312 317 322 334 254 357 354 201 193 165 176 171 169 169 159 161 160 159 162 158 162 166 167 170 175 176 178 180 183 179 181 182 180 178 175 179 174 196 202 234 267 283 285 298 315 320 326 320
236 255 299 328 332 334 356 9 36 122 85 85 126 161 174 168 168 166 164 166 169 171 172 176 180 182 183 185 189 188 186 186 187 185 187 190 194 194 193 222 250 309 319 323 324 322 324 329 329
271 245 203 307 324 323 342 4 318 22 6 9 29 12 158 169 173 175 175 173 172 177 184 185 188 192 192 193 192 195 198 195 197 202 204 230 261 284 199 270 322 347 346 341 334 326 327 332 338
208 282 288 298 313 311 331 330 62 315 351 357 338 352 36 151 181 184 181 180 182 184 187 189 193 196 198 200 203 205 203 201 216 267 291 291 285 227 197 339 351 339 339 338 339 335 338 338 337
238 218 268 294 284 308 310 330 6 117 310 343 339 3 350 349 345 168 196 194 191 192 193 196 198 202 204 206 206 210 220 231 273 277 283 311 310 326 79 360 344 336 336 337 340 345 345 337 330
220 224 234 264 287 298 298 311 17 26 12 306 21 16 330 11 344 334 18 192 195 200 198 200 206 211 227 217 219 243 269 274 286 304 150 273 43 24 17 359 345 340 339 340 339 339 335 340 335